{"data":{"norad_id":64309,"intl_designator":"2025-123U","name":"STARLINK-34370","alt_names":[],"object_type":"PAYLOAD","status":"ACTIVE","operator":null,"country":"US","launch_date":"2025-06-08","launch_site_code":"AFWTR","launch_vehicle":null,"mission":null,"orbit_class":"UNKNOWN","rcs_meters":null,"size_class":null,"mass_kg":null,"dimensions":null,"purposes":["comms"],"wikipedia_slug":null,"has_3d_model":false,"image_url":null,"decayed_at":null,"tle_current":{"epoch":"2026-09-20T13:13:49.091232Z","epoch_age_seconds":133221,"freshness":"FRESH","line1":"1 64309U 25123U   26263.55126263  .00012647  00000+0  44357-3 0  9999","line2":"2 64309  70.0000  60.8772 0003382 270.7396  89.3392 15.29584520 70867","mean_motion":15.2958452,"eccentricity":0.0003382,"inclination_deg":70,"raan_deg":60.8772,"arg_perigee_deg":270.7396,"mean_anomaly_deg":89.3392,"bstar":0.00044357,"rev_number":7086,"period_min":94.143212171106,"perigee_km":474.73497255954,"apogee_km":479.37182334472,"semimajor_km":6855.1903979521,"source":"CELESTRAK","updated_at":"2026-09-21T09:00:35.308661Z"}}}